Change the Weather History Date:

Thursday, June 12, 2014

  Actual Average Record
Temperature  
Mean Temperature 70 °F 75 °F  
Max Temperature 77 °F 86 °F 105 °F (1953)
Min Temperature 63 °F 64 °F 48 °F (1903)
Degree Days  
Heating Degree Days 0 0  
Month to date heating degree days 0 3  
Since 1 June heating degree days 0 3  
Since 1 July heating degree days 4939 4591  
Cooling Degree Days 5 10  
Month to date cooling degree days 112 100  
Year to date cooling degree days 379 236  
Since 1 June cooling degree days 112 100  
Growing Degree Days 20 (Base 50)    
Moisture  
Dew Point 60 °F    
Average Humidity 70    
Maximum Humidity 93    
Minimum Humidity 46    
Precipitation  
Precipitation 0.59 in 0.18 in 2.27 in (1925)
Month to date precipitation 4.31 2.17  
Year to date precipitation 10.38 14.03  
Snow  
Snow 0.00 in 0.00 in 0.00 in (2007)
Month to date snowfall 0.0 0.0  
Since 1 June snowfall 0.0 0.0  
Since 1 July snowfall 23.0 14.9  
Snow Depth 0.00 in    
Sea Level Pressure  
Sea Level Pressure 29.93 in    
Wind  
Wind Speed 12 mph (North)    
Max Wind Speed 40 mph    
Max Gust Speed 49 mph    
Visibility 9 miles    
Events Rain , Thunderstorm    
T = Trace of Precipitation, MM = Missing Value Source: NWS Daily Summary

Daily Weather History Graph

Daily Weather History Graph

Search for Another Location

Airport or City:

Trip Planner

Search our weather history database for the weather conditions in past years. The results will help you decide how hot, cold, wet, or windy it might be!

Date:

Astronomy

Jun. 12, 2014 Rise Set
Actual Time 6:07 AM CDT 8:51 PM CDT
Civil Twilight 5:36 AM CDT 9:22 PM CDT
Nautical Twilight 4:57 AM CDT 10:01 PM CDT
Astronomical Twilight 4:13 AM CDT 10:45 PM CDT
Moon 8:26 PM CDT (6/12) 5:48 AM CDT (6/12)
Length of Visible Light 15h 46m
Length of Day
14h 44m
Full, 100% of the Moon is Illuminated
Jun 12
Full
Jun 12
Full
Jun 19
Last Quarter
Jun 27
New
Jul 5
First Quarter

Hourly Weather History & Observations

Time (CDT) Temp. Dew Point Humidity Pressure Visibility Wind Dir Wind Speed Gust Speed Precip Events Conditions
12:28 AM 73.9 °F 64.9 °F 73% 29.83 in 10.0 mi Variable 5.8 mph - N/A Thunderstorm Thunderstorm
12:49 AM 75.2 °F 60.8 °F 61% 29.82 in 10.0 mi NW 21.9 mph 29.9 mph 0.00 in Rain , Thunderstorm Light Thunderstorms and Rain
12:53 AM 72.0 °F 62.1 °F 71% 29.78 in 8.0 mi NNW 29.9 mph 35.7 mph 0.00 in Rain , Thunderstorm Light Thunderstorms and Rain
1:28 AM 66.9 °F 64.0 °F 90% 29.87 in 1.8 mi West 8.1 mph - 0.10 in Rain , Thunderstorm Heavy Thunderstorms and Rain
1:53 AM 66.9 °F 64.0 °F 90% 29.86 in 3.0 mi WSW 11.5 mph - 0.31 in Rain , Thunderstorm Light Thunderstorms and Rain
2:53 AM 66.0 °F 64.9 °F 96% 29.73 in 3.0 mi East 31.1 mph 40.3 mph 0.24 in Rain , Thunderstorm Thunderstorms and Rain
3:44 AM 66.9 °F 66.0 °F 97% 29.85 in 10.0 mi SSE 8.1 mph - 0.03 in Rain Light Rain
3:53 AM 66.9 °F 63.0 °F 87% 29.82 in 10.0 mi West 9.2 mph - 0.03 in Rain Light Rain
4:53 AM 66.0 °F 64.0 °F 93% 29.86 in 10.0 mi WNW 9.2 mph - 0.01 in   Overcast
5:06 AM 66.9 °F 64.0 °F 90% 29.88 in 10.0 mi WNW 9.2 mph - N/A   Overcast
5:53 AM 64.9 °F 62.1 °F 90% 29.84 in 10.0 mi NNW 11.5 mph - N/A   Overcast
6:53 AM 64.0 °F 62.1 °F 93% 29.85 in 10.0 mi NW 6.9 mph - N/A   Mostly Cloudy
7:53 AM 66.0 °F 62.1 °F 87% 29.89 in 10.0 mi NNW 12.7 mph - N/A   Scattered Clouds
9:49 AM 69.8 °F 60.8 °F 73% 29.97 in 10.0 mi NNE 16.1 mph - N/A   Overcast
9:53 AM 70.0 °F 62.1 °F 76% 29.94 in 10.0 mi North 16.1 mph - N/A   Overcast
10:53 AM 71.1 °F 61.0 °F 70% 29.96 in 10.0 mi NNE 15.0 mph - N/A   Overcast
11:35 AM 71.1 °F 60.1 °F 68% 30.02 in 10.0 mi NNE 16.1 mph - N/A   Overcast
11:53 AM 71.1 °F 60.1 °F 68% 29.99 in 10.0 mi NNE 11.5 mph - N/A   Overcast
12:22 PM 71.1 °F 60.1 °F 68% 30.03 in 10.0 mi North 11.5 mph - N/A   Overcast
12:36 PM 72.0 °F 59.0 °F 64% 30.03 in 10.0 mi NNE 12.7 mph - N/A   Overcast
12:53 PM 73.0 °F 59.0 °F 61% 30.00 in 10.0 mi NNE 12.7 mph - N/A   Overcast
1:53 PM 73.0 °F 59.0 °F 61% 30.00 in 10.0 mi North 15.0 mph - N/A   Overcast
2:53 PM 75.0 °F 60.1 °F 60% 29.99 in 10.0 mi North 12.7 mph - N/A   Mostly Cloudy
3:53 PM 75.0 °F 59.0 °F 57% 30.00 in 10.0 mi North 12.7 mph - N/A   Mostly Cloudy
4:53 PM 75.9 °F 57.0 °F 52% 29.99 in 10.0 mi North 12.7 mph - N/A   Scattered Clouds
5:53 PM 75.9 °F 54.0 °F 46% 29.98 in 10.0 mi NNE 15.0 mph - N/A   Scattered Clouds
6:53 PM 75.0 °F 55.0 °F 50% 29.98 in 10.0 mi North 12.7 mph - N/A   Scattered Clouds
7:53 PM 73.9 °F 53.1 °F 48% 29.99 in 10.0 mi North 12.7 mph - N/A   Partly Cloudy
8:53 PM 71.1 °F 53.1 °F 53% 30.00 in 10.0 mi North 9.2 mph - N/A   Partly Cloudy
9:53 PM 69.1 °F 54.0 °F 58% 30.01 in 10.0 mi North 9.2 mph - N/A   Partly Cloudy
10:53 PM 66.9 °F 54.0 °F 63% 30.04 in 10.0 mi North 8.1 mph - N/A   Partly Cloudy
11:53 PM 64.0 °F 54.0 °F 70% 30.04 in 10.0 mi NNE 6.9 mph - N/A   Clear